[[{"header":{"parameterUnit":"m.s-1","parameterCategory":1,"la1":30.2991,"la2":30.254,"lo1":-89.0895,"lo2":-89.0444,"dy":0.0017,"dx":0.0017,"nx":28,"ny":28,"refTime":"2023-06-19T21:00:00:Z","depth":0,"parameterNumber":2,"parameterNumberName":"U-component_of_WINDS"},"data":[0,0,0,0,0,0,0,0,0,0,0,0,0,0,0,0,0,0,0,0,0,0,0,0,0,0,0,0,0,0,0,0,0,0,0,0,0,0,0,0,0,0,0,0,0,0,0,0,0,0,0,0,0,0,0,0,0,0,3.3268,3.3269,0,3.3334,3.3334,3.3335,3.325,3.3247,3.3244,3.3241,3.3314,3.3319,3.3324,0,0,0,0,0,0,0,0,0,0,0,0,0,3.3076,3.3079,3.3268,3.3269,3.327,3.3334,3.3335,3.3335,3.3251,3.3247,3.3243,3.324,3.3313,3.3318,3.3324,0,0,0,0,0,0,0,0,0,0,0,0,0,3.3152,3.3081,3.3268,3.3235,3.3233,3.3333,3.3335,3.3336,3.3252,3.3247,3.3242,3.3238,3.3311,3.3318,3.3325,3.3463,0,0,3.3347,3.335,0,0,0,0,0,0,0,0,3.3148,3.3159,3.3239,3.3238,3.3235,3.3279,3.3293,3.3379,3.3253,3.3245,3.3241,3.3236,3.3307,3.3314,3.3337,3.3466,3.3469,3.3348,3.3352,3.3355,3.3357,0,0,0,0,0,0,0,3.3143,3.3156,3.3294,3.3241,3.3238,3.3219,3.3225,3.3309,3.3301,3.3245,3.3239,3.3248,3.3305,3.333,3.3338,3.3471,3.3348,3.3354,3.3359,3.3361,3.3717,3.3722,0,0,0,0,0,0,3.314,3.3152,3.3292,3.3296,3.3179,3.3226,3.3233,3.327,3.33,3.33,3.3252,3.3243,3.332,3.3329,3.334,3.3503,3.3355,3.3362,3.3366,3.3712,3.3718,3.3724,0,0,0,0,0,0,3.3137,3.3154,3.329,3.3223,3.3238,3.3234,3.3277,3.3274,3.3298,3.3305,3.3304,3.3278,3.3317,3.333,3.3433,3.3505,3.3365,3.3372,3.3706,3.3714,3.3721,3.3831,0,0,0,0,0,0,3.3131,3.3153,3.3204,3.3224,3.3242,3.338,3.3281,3.3278,3.331,3.33,3.333,3.333,3.3314,3.3422,3.344,3.3512,3.3378,3.3699,3.3709,3.3718,3.3821,3.3842,3.3859,0,0,0,0,0,3.3125,3.3234,3.3207,3.3224,3.3306,3.3384,3.3394,3.3372,3.3317,3.3369,3.3373,3.3329,3.3494,3.3433,3.3453,3.3528,3.3695,3.3707,3.3718,3.3813,3.3838,3.3859,0,0,0,0,0,0,3.3224,3.3236,3.3206,3.3324,3.3354,3.3369,3.3434,3.3399,3.3446,3.3435,3.3407,3.3415,3.3524,3.3536,3.3469,3.3663,3.3585,3.3601,3.3651,3.3675,3.3694,3.3689,3.3384,0,0,0,0,0,3.3259,3.332,3.3328,3.3432,3.3447,3.3439,3.3472,3.3452,3.3482,3.3494,3.3506,3.3538,3.3597,3.3637,3.3691,3.3823,3.3828,3.3884,3.3903,3.3919,3.3933,3.4004,3.4029,3.3761,3.3761,3.3761,0,0,3.3334,3.3347,3.3388,3.3452,3.3472,3.3537,3.345,3.3522,3.3571,3.3506,3.3603,3.3613,3.3647,3.3765,3.3817,3.3779,3.4008,3.3934,3.3946,3.3952,3.4018,3.4044,3.4066,3.3769,3.3768,3.3766,0,0,3.3502,3.3518,3.3606,3.3628,3.3659,3.3652,3.3674,3.3695,3.3698,3.3795,3.3747,3.3806,3.3908,3.3934,3.3961,3.4139,3.4101,3.4158,3.4258,3.4328,3.4349,3.4367,3.4431,3.4455,3.4172,3.4173,3.4173,0,3.3591,3.3685,3.3657,3.3732,3.3762,3.3704,3.3794,3.3817,3.3866,3.3889,3.3844,3.3971,3.399,3.4113,3.4156,3.418,3.4205,3.4155,3.4347,3.4366,3.4383,3.4444,3.4468,3.4179,3.4179,3.4178,3.4177,0,3.3793,3.3859,3.3927,3.3973,3.4011,3.4094,3.4079,3.4121,3.4098,3.4097,3.4197,3.4217,3.4275,3.4303,3.4282,3.4423,3.4398,3.4351,3.4272,3.4415,3.4472,3.4495,3.4189,3.4187,3.4185,3.4183,0,0,3.4026,3.4054,3.408,3.41,3.413,3.4181,3.4262,3.4317,3.4353,3.4389,3.4457,3.4544,3.4501,3.4531,3.4513,3.4574,3.4714,3.4519,3.452,3.4555,3.4872,3.4907,3.4935,3.4689,3.4693,3.4697,3.4869,0,3.4194,3.4331,3.4308,3.4442,3.4504,3.445,3.452,3.4547,3.4548,3.4602,3.4604,3.4666,3.4604,3.4622,3.468,3.4685,3.4778,3.4672,3.4753,3.4756,3.4746,3.4964,3.5002,3.5164,3.4891,3.4895,3.4898,0,3.4409,3.445,3.459,3.461,3.4635,3.4698,3.4746,3.4798,3.4828,3.4825,3.4859,3.4829,3.4911,3.4831,3.4945,3.4873,3.4905,3.4913,3.4919,3.4926,3.4836,3.4978,3.5215,3.5239,3.4932,3.4929,3.4927,0,3.4566,3.4656,3.4751,3.477,3.4796,3.4842,3.4855,3.488,3.4914,3.4957,3.4979,3.5032,3.5062,3.5104,3.509,3.5033,3.5207,3.5125,3.5208,3.5208,3.5247,3.5245,3.5493,3.5268,3.5267,3.5267,3.5266,0,3.4756,3.4844,3.4821,3.488,3.4977,3.495,3.5048,3.5055,3.5078,3.5138,3.5095,3.5153,3.5131,3.5188,3.5178,3.5274,3.5288,3.5288,3.5285,3.5292,3.5292,3.5313,3.5302,3.5273,3.5272,3.5271,3.527,0,3.4948,3.4936,3.5036,3.5051,3.5057,3.5128,3.5143,3.5198,3.5196,3.5273,3.5289,3.5286,3.5351,3.5341,3.5414,3.5407,3.5527,3.551,3.5516,3.5512,3.5596,3.5588,3.5866,3.5902,3.5653,3.5655,3.5657,0,3.507,3.5136,3.5158,3.5194,3.521,3.527,3.5304,3.528,3.5318,3.5357,3.5409,3.5469,3.5516,3.5623,3.5629,3.5684,3.5668,3.5762,3.5676,3.5682,3.567,3.5666,3.5673,3.5779,3.5782,3.5784,3.5786,0,3.5289,3.528,3.533,3.5378,3.542,3.5457,3.5491,3.5523,3.5503,3.5548,3.5613,3.5649,3.5722,3.5784,3.5836,3.5851,3.5817,3.5813,3.5835,3.5844,3.5845,3.5845,3.5563,3.5807,3.5805,3.5803,3.5802,3.5801,3.545,3.5506,3.553,3.5587,3.5609,3.5642,3.5695,3.5698,3.5751,3.5807,3.5791,3.5864,3.5893,3.5959,3.598,3.6039,3.6005,3.6037,3.6045,3.6053,3.6063,3.5835,3.6048,3.6048,3.6047,3.6047,3.6046,0,3.5667,3.568,3.5732,3.5779,3.5825,3.5785,3.582,3.5862,3.5926,3.5955,3.6002,3.6077,3.6136,3.6146,3.6202,3.6247,3.6233,3.6263,3.626,3.6264,3.609,3.6066,3.6274,3.6274,3.6274,3.6274,3.6274,3.6274,3.5785,3.5878,3.5872,3.5975,3.5988,3.6058,3.6081,3.6111,3.6134,3.6219,3.6267,3.6272,3.6294,3.6351,3.6404,3.6406,3.6429,3.6466,3.6461,3.6299,3.6276,3.6255,3.6231,3.6471,3.6471,3.663,3.6631,3.6632]},{"header":{"parameterUnit":"m.s-1","parameterCategory":1,"la1":30.2991,"la2":30.254,"lo1":-89.0895,"lo2":-89.0444,"dy":0.0017,"dx":0.0017,"nx":28,"ny":28,"refTime":"2023-06-19T21:00:00:Z","depth":0,"parameterNumber":3,"parameterNumberName":"V-component_of_WINDS"},"data":[0,0,0,0,0,0,0,0,0,0,0,0,0,0,0,0,0,0,0,0,0,0,0,0,0,0,0,0,0,0,0,0,0,0,0,0,0,0,0,0,0,0,0,0,0,0,0,0,0,0,0,0,0,0,0,0,0,0,-0.2036,-0.2035,0,-0.1989,-0.1989,-0.1988,-0.1949,-0.1948,-0.1948,-0.1947,-0.19,-0.1899,-0.1898,0,0,0,0,0,0,0,0,0,0,0,0,0,-0.2093,-0.2092,-0.2036,-0.2035,-0.2035,-0.1989,-0.1988,-0.1988,-0.1949,-0.1948,-0.1948,-0.1947,-0.19,-0.1899,-0.1898,0,0,0,0,0,0,0,0,0,0,0,0,0,-0.2059,-0.2092,-0.2036,-0.201,-0.2007,-0.1989,-0.1988,-0.1988,-0.1949,-0.1948,-0.1948,-0.1947,-0.1901,-0.19,-0.1898,-0.1903,0,0,-0.1894,-0.1894,0,0,0,0,0,0,0,0,-0.2061,-0.2057,-0.2014,-0.2012,-0.2008,-0.1974,-0.1991,-0.1959,-0.1949,-0.1971,-0.1947,-0.1947,-0.1925,-0.1922,-0.1915,-0.1901,-0.1899,-0.1894,-0.1893,-0.1893,-0.1892,0,0,0,0,0,0,0,-0.2064,-0.2059,-0.2017,-0.2014,-0.201,-0.2001,-0.1995,-0.1985,-0.1952,-0.1969,-0.1966,-0.1961,-0.1924,-0.1916,-0.1913,-0.1898,-0.1894,-0.1893,-0.1892,-0.1892,-0.1886,-0.1886,0,0,0,0,0,0,-0.207,-0.2061,-0.2019,-0.2016,-0.2034,-0.2,-0.1994,-0.1986,-0.1952,-0.1947,-0.1962,-0.1959,-0.1918,-0.1915,-0.1911,-0.1914,-0.1893,-0.1892,-0.1891,-0.1885,-0.1886,-0.1887,0,0,0,0,0,0,-0.2071,-0.2066,-0.2021,-0.2038,-0.2031,-0.2,-0.1991,-0.1985,-0.1977,-0.1947,-0.1941,-0.196,-0.1918,-0.1913,-0.1905,-0.1912,-0.1891,-0.189,-0.1884,-0.1885,-0.1886,-0.192,0,0,0,0,0,0,-0.2073,-0.2067,-0.2068,-0.2038,-0.203,-0.2015,-0.1991,-0.1985,-0.1975,-0.1972,-0.1943,-0.1938,-0.1917,-0.1907,-0.1904,-0.191,-0.1889,-0.1884,-0.1885,-0.1886,-0.1918,-0.1922,-0.1926,0,0,0,0,0,-0.2075,-0.208,-0.2068,-0.2064,-0.2031,-0.2016,-0.2011,-0.1987,-0.1976,-0.1977,-0.1957,-0.1939,-0.1912,-0.1907,-0.1903,-0.1908,-0.1883,-0.1884,-0.1886,-0.1917,-0.1922,-0.1926,0,0,0,0,0,0,-0.2112,-0.2075,-0.2062,-0.2057,-0.204,-0.2009,-0.2009,-0.1993,-0.1978,-0.1975,-0.1946,-0.194,-0.1935,-0.1921,-0.1916,-0.1911,-0.1895,-0.1896,-0.192,-0.1924,-0.1928,-0.1931,-0.1888,0,0,0,0,0,-0.2119,-0.2109,-0.2078,-0.2077,-0.2069,-0.2041,-0.2033,-0.2016,-0.1997,-0.1989,-0.1969,-0.1951,-0.1939,-0.1931,-0.1918,-0.1917,-0.191,-0.1919,-0.1922,-0.1925,-0.1926,-0.1924,-0.1927,-0.1891,-0.1891,-0.1891,0,0,-0.2135,-0.2114,-0.2109,-0.2084,-0.2068,-0.2059,-0.2035,-0.2026,-0.2019,-0.1988,-0.1979,-0.1964,-0.1942,-0.1937,-0.1934,-0.1925,-0.1935,-0.1927,-0.193,-0.1929,-0.1926,-0.1929,-0.1932,-0.1892,-0.1892,-0.1892,0,0,-0.2158,-0.2141,-0.2138,-0.2123,-0.2099,-0.2081,-0.208,-0.2052,-0.2041,-0.2031,-0.2008,-0.1999,-0.1978,-0.1964,-0.1954,-0.1972,-0.1954,-0.1969,-0.1987,-0.1986,-0.1988,-0.1991,-0.1997,-0.1999,-0.197,-0.197,-0.197,0,-0.218,-0.2164,-0.2138,-0.2131,-0.212,-0.2092,-0.2089,-0.2076,-0.205,-0.2043,-0.2034,-0.2007,-0.1991,-0.1982,-0.1987,-0.198,-0.1978,-0.1971,-0.199,-0.1992,-0.1994,-0.1999,-0.2002,-0.1972,-0.1971,-0.1971,-0.1971,0,-0.2192,-0.2182,-0.2182,-0.2157,-0.2147,-0.2142,-0.2116,-0.2109,-0.2093,-0.2075,-0.2066,-0.2046,-0.2028,-0.2025,-0.2009,-0.2014,-0.2009,-0.1996,-0.1979,-0.2,-0.2004,-0.2006,-0.1974,-0.1974,-0.1973,-0.1973,0,0,-0.2235,-0.2197,-0.2197,-0.2186,-0.2158,-0.215,-0.2144,-0.2126,-0.212,-0.2104,-0.2098,-0.2081,-0.2068,-0.2057,-0.204,-0.2039,-0.2054,-0.2025,-0.2024,-0.203,-0.2057,-0.2067,-0.207,-0.2043,-0.2043,-0.2043,-0.2059,0,-0.2253,-0.2239,-0.2216,-0.221,-0.2201,-0.2174,-0.2169,-0.2152,-0.2136,-0.2125,-0.2108,-0.2096,-0.2081,-0.2074,-0.2071,-0.2053,-0.2059,-0.2051,-0.2036,-0.2036,-0.2041,-0.2072,-0.2082,-0.2098,-0.2061,-0.2061,-0.2061,0,-0.2271,-0.2256,-0.2249,-0.2222,-0.2217,-0.2213,-0.2195,-0.2185,-0.2166,-0.2154,-0.2142,-0.2123,-0.2115,-0.2101,-0.209,-0.2085,-0.2078,-0.2068,-0.2068,-0.2065,-0.2049,-0.2069,-0.2102,-0.2104,-0.2064,-0.2064,-0.2063,0,-0.2302,-0.228,-0.2273,-0.2264,-0.2233,-0.223,-0.2217,-0.2197,-0.2188,-0.2173,-0.2167,-0.2151,-0.2142,-0.2131,-0.2108,-0.21,-0.2099,-0.2083,-0.2089,-0.209,-0.2089,-0.2089,-0.2121,-0.2087,-0.2087,-0.2087,-0.2087,0,-0.2324,-0.232,-0.2286,-0.2282,-0.2277,-0.2252,-0.2248,-0.2233,-0.2215,-0.2207,-0.2184,-0.2178,-0.2149,-0.2139,-0.2122,-0.2115,-0.2111,-0.2102,-0.2097,-0.2103,-0.2104,-0.2097,-0.2095,-0.2087,-0.2087,-0.2087,-0.2087,0,-0.2357,-0.2334,-0.2324,-0.2296,-0.2289,-0.2287,-0.2263,-0.2258,-0.2241,-0.2231,-0.2228,-0.2201,-0.2188,-0.2165,-0.2146,-0.2134,-0.2131,-0.2123,-0.2137,-0.2134,-0.2141,-0.214,-0.2168,-0.217,-0.2136,-0.2136,-0.2137,0,-0.2371,-0.2368,-0.2339,-0.2332,-0.232,-0.231,-0.23,-0.2276,-0.2267,-0.2245,-0.2242,-0.2227,-0.2214,-0.2195,-0.2174,-0.2159,-0.2151,-0.2162,-0.2148,-0.2154,-0.215,-0.215,-0.2149,-0.2164,-0.2165,-0.2165,-0.2165,0,-0.2399,-0.2388,-0.2375,-0.2359,-0.2348,-0.2334,-0.2319,-0.2315,-0.2287,-0.2278,-0.2265,-0.2255,-0.2235,-0.2221,-0.2203,-0.219,-0.2173,-0.217,-0.217,-0.2176,-0.2184,-0.2179,-0.2144,-0.2169,-0.2169,-0.2169,-0.2168,-0.2168,-0.2422,-0.2418,-0.2397,-0.2384,-0.237,-0.2357,-0.235,-0.2333,-0.2321,-0.2303,-0.2289,-0.2277,-0.2258,-0.2232,-0.222,-0.221,-0.2202,-0.2203,-0.2203,-0.2203,-0.2206,-0.2187,-0.2207,-0.2207,-0.2207,-0.2207,-0.2207,0,-0.2448,-0.2433,-0.2422,-0.2401,-0.2391,-0.2376,-0.2359,-0.2351,-0.234,-0.2324,-0.2312,-0.2296,-0.2283,-0.2261,-0.2246,-0.2242,-0.2234,-0.2238,-0.2238,-0.2235,-0.2214,-0.2215,-0.2245,-0.2245,-0.2245,-0.2245,-0.2245,-0.2245,-0.246,-0.2451,-0.2438,-0.2423,-0.2409,-0.2396,-0.2388,-0.2375,-0.2362,-0.2346,-0.2334,-0.232,-0.2302,-0.2285,-0.2272,-0.2266,-0.2261,-0.2268,-0.226,-0.224,-0.2237,-0.2233,-0.2233,-0.2268,-0.2268,-0.2281,-0.2281,-0.2282]}]]